When you browse on this site, cookies collect data to enhance your experience and personalize the content and advertising you see.
Visit our Privacy Policy to learn more. By continuing to use the site, you agree to this use of cookies and data.
  • In Czech Republic
  • List of Countries
  • For 7 days
  • Water Temperature
  • Satellite Maps
  • Weather Map
  • Weather Widgets
  • user-avatar
    Login

    Hourly Weather Kensington

    Today, 20 June, Thursday

    Time Temperature Precipitation Wind Pressure Humidity
    00:00 +14°C° 0 mm 5 mps 755 mmHg 84%
    01:00 +14°C° 0 mm 5 mps 754 mmHg 82%
    02:00 +13°C° 0 mm 4 mps 754 mmHg 84%
    03:00 +13°C° 0 mm 4 mps 754 mmHg 82%
    04:00 +12°C° 0 mm 4 mps 754 mmHg 81%
    05:00 +12°C° 0 mm 3 mps 754 mmHg 80%
    06:00 +13°C° 0 mm 4 mps 754 mmHg 80%
    07:00 +14°C° 0 mm 4 mps 754 mmHg 80%
    08:00 +15°C° 0 mm 4 mps 754 mmHg 79%
    09:00 +17°C° 0 mm 3 mps 754 mmHg 76%
    10:00 +18°C° 0 mm 3 mps 754 mmHg 73%
    11:00 +19°C° 0 mm 3 mps 753 mmHg 70%
    12:00 +20°C° 0 mm 2 mps 753 mmHg 67%
    13:00 +21°C° 0 mm 2 mps 753 mmHg 63%
    14:00 +23°C° 0 mm 2 mps 752 mmHg 60%
    15:00 +23°C° 0 mm 2 mps 752 mmHg 61%
    16:00 +23°C° 0 mm 2 mps 752 mmHg 63%
    17:00 +23°C° 0 mm 2 mps 751 mmHg 65%
    18:00 +20°C° 0 mm 3 mps 751 mmHg 68%
    19:00 +19°C° 0 mm 4 mps 751 mmHg 71%
    20:00 +18°C° 0 mm 4 mps 751 mmHg 74%
    21:00 +17°C° 0.7 mm 4 mps 750 mmHg 80%
    22:00 +16°C° 0.7 mm 3 mps 750 mmHg 87%
    23:00 +16°C° 0.7 mm 3 mps 750 mmHg 93%

    Tomorrow, 21 June, Friday

    Time Temperature Precipitation Wind Pressure Humidity
    00:00 +14°C° 1.4 mm 3 mps 749 mmHg 94%
    01:00 +14°C° 1.4 mm 3 mps 749 mmHg 96%
    02:00 +13°C° 1.4 mm 3 mps 748 mmHg 97%
    03:00 +13°C° 1.3 mm 3 mps 748 mmHg 97%
    04:00 +13°C° 1.3 mm 3 mps 748 mmHg 97%
    05:00 +14°C° 1.3 mm 2 mps 747 mmHg 98%
    06:00 +15°C° 0.6 mm 2 mps 747 mmHg 97%
    07:00 +15°C° 0.6 mm 1 mps 747 mmHg 97%
    08:00 +15°C° 0.6 mm 1 mps 747 mmHg 97%
    09:00 +15°C° 1.7 mm 2 mps 746 mmHg 98%
    10:00 +15°C° 1.7 mm 2 mps 746 mmHg 98%
    11:00 +14°C° 1.7 mm 3 mps 745 mmHg 98%
    12:00 +14°C° 3.8 mm 4 mps 745 mmHg 98%
    13:00 +14°C° 3.8 mm 4 mps 745 mmHg 98%
    14:00 +14°C° 3.8 mm 5 mps 745 mmHg 98%
    15:00 +12°C° 3.8 mm 7 mps 744 mmHg 98%
    16:00 +12°C° 3.8 mm 9 mps 743 mmHg 97%
    17:00 +11°C° 3.8 mm 11 mps 743 mmHg 97%
    18:00 +11°C° 5.4 mm 11 mps 742 mmHg 97%
    19:00 +11°C° 5.4 mm 11 mps 742 mmHg 97%
    20:00 +11°C° 5.4 mm 11 mps 741 mmHg 97%
    21:00 +11°C° 1.9 mm 11 mps 741 mmHg 96%
    22:00 +10°C° 1.9 mm 12 mps 741 mmHg 95%
    23:00 +10°C° 1.9 mm 12 mps 741 mmHg 94%

    Day after tomorrow, 22 June, Saturday

    Time Temperature Precipitation Wind Pressure Humidity
    00:00 +10°C° 3.7 mm 12 mps 741 mmHg 94%
    01:00 +10°C° 3.7 mm 13 mps 741 mmHg 94%
    02:00 +9°C° 3.7 mm 13 mps 741 mmHg 95%
    03:00 +9°C° 1.6 mm 13 mps 741 mmHg 94%
    04:00 +9°C° 1.6 mm 12 mps 741 mmHg 93%
    05:00 +10°C° 1.6 mm 12 mps 741 mmHg 92%
    06:00 +10°C° 0.1 mm 12 mps 742 mmHg 91%
    07:00 +10°C° 0.1 mm 12 mps 742 mmHg 89%
    08:00 +11°C° 0.1 mm 11 mps 743 mmHg 88%
    09:00 +12°C° 0 mm 11 mps 743 mmHg 86%
    10:00 +12°C° 0 mm 10 mps 743 mmHg 84%
    11:00 +12°C° 0 mm 10 mps 743 mmHg 81%
    12:00 +12°C° 0 mm 9 mps 743 mmHg 80%
    13:00 +12°C° 0 mm 9 mps 744 mmHg 79%
    14:00 +12°C° 0 mm 9 mps 744 mmHg 78%
    15:00 +12°C° 0 mm 9 mps 744 mmHg 78%
    16:00 +12°C° 0 mm 9 mps 744 mmHg 78%
    17:00 +12°C° 0 mm 8 mps 744 mmHg 78%
    18:00 +12°C° 0.1 mm 8 mps 744 mmHg 77%
    19:00 +12°C° 0.1 mm 8 mps 744 mmHg 76%
    20:00 +12°C° 0.1 mm 8 mps 744 mmHg 75%
    21:00 +13°C° 0 mm 8 mps 744 mmHg 73%
    22:00 +13°C° 0 mm 8 mps 744 mmHg 72%
    23:00 +13°C° 0 mm 8 mps 744 mmHg 70%

    23 June, Sunday

    Time Temperature Precipitation Wind Pressure Humidity
    00:00 +13°C° 0 mm 9 mps 744 mmHg 69%
    01:00 +13°C° 0 mm 9 mps 744 mmHg 67%
    02:00 +13°C° 0 mm 10 mps 743 mmHg 66%
    03:00 +13°C° 0 mm 9 mps 744 mmHg 69%
    04:00 +12°C° 0 mm 9 mps 744 mmHg 72%
    05:00 +12°C° 0 mm 8 mps 744 mmHg 75%
    06:00 +12°C° 0 mm 9 mps 744 mmHg 74%
    07:00 +13°C° 0 mm 9 mps 745 mmHg 73%
    08:00 +14°C° 0 mm 10 mps 745 mmHg 72%
    09:00 +14°C° 0.1 mm 10 mps 745 mmHg 72%
    10:00 +15°C° 0.1 mm 9 mps 745 mmHg 71%
    11:00 +15°C° 0.1 mm 9 mps 746 mmHg 70%
    12:00 +15°C° 0.2 mm 8 mps 746 mmHg 72%
    13:00 +15°C° 0.2 mm 7 mps 746 mmHg 74%
    14:00 +15°C° 0.2 mm 6 mps 746 mmHg 76%
    15:00 +14°C° 0.1 mm 6 mps 747 mmHg 76%
    16:00 +14°C° 0.1 mm 5 mps 747 mmHg 76%
    17:00 +14°C° 0.1 mm 5 mps 747 mmHg 76%
    18:00 +14°C° 0.1 mm 6 mps 748 mmHg 76%
    19:00 +13°C° 0.1 mm 6 mps 748 mmHg 75%
    20:00 +13°C° 0.1 mm 6 mps 749 mmHg 75%
    21:00 +11°C° 0 mm 7 mps 749 mmHg 74%
    22:00 +11°C° 0 mm 7 mps 749 mmHg 74%
    23:00 +11°C° 0 mm 7 mps 750 mmHg 73%

    24 June, Monday

    Time Temperature Precipitation Wind Pressure Humidity
    00:00 +11°C° 0.1 mm 7 mps 750 mmHg 74%
    01:00 +11°C° 0.1 mm 7 mps 750 mmHg 76%
    02:00 +10°C° 0.1 mm 7 mps 750 mmHg 77%
    03:00 +10°C° 0.1 mm 7 mps 750 mmHg 78%
    04:00 +10°C° 0.1 mm 7 mps 751 mmHg 78%
    05:00 +10°C° 0.1 mm 7 mps 751 mmHg 79%
    06:00 +10°C° 0.1 mm 7 mps 751 mmHg 79%
    07:00 +11°C° 0.1 mm 8 mps 752 mmHg 79%
    08:00 +11°C° 0.1 mm 8 mps 752 mmHg 80%
    09:00 +11°C° 0.2 mm 8 mps 752 mmHg 79%
    10:00 +11°C° 0.2 mm 8 mps 753 mmHg 79%
    11:00 +11°C° 0.2 mm 8 mps 753 mmHg 78%
    12:00 +12°C° 0.1 mm 8 mps 753 mmHg 75%
    13:00 +12°C° 0.1 mm 8 mps 753 mmHg 73%
    14:00 +14°C° 0.1 mm 7 mps 754 mmHg 70%
    15:00 +14°C° 0 mm 7 mps 754 mmHg 70%
    16:00 +14°C° 0 mm 6 mps 755 mmHg 70%
    17:00 +14°C° 0 mm 6 mps 755 mmHg 70%
    18:00 +13°C° 0 mm 5 mps 755 mmHg 74%
    19:00 +12°C° 0 mm 4 mps 756 mmHg 77%
    20:00 +11°C° 0 mm 3 mps 756 mmHg 81%
    21:00 +11°C° 0 mm 3 mps 756 mmHg 80%
    22:00 +11°C° 0 mm 3 mps 756 mmHg 80%
    23:00 +11°C° 0 mm 3 mps 756 mmHg 79%

    25 June, Tuesday

    Time Temperature Precipitation Wind Pressure Humidity
    00:00 +11°C° 0 mm 3 mps 756 mmHg 78%
    01:00 +11°C° 0 mm 3 mps 757 mmHg 77%
    02:00 +11°C° 0 mm 3 mps 757 mmHg 75%
    03:00 +10°C° 0 mm 3 mps 757 mmHg 78%
    04:00 +10°C° 0 mm 3 mps 757 mmHg 80%
    05:00 +10°C° 0 mm 3 mps 757 mmHg 82%
    06:00 +11°C° 0 mm 3 mps 757 mmHg 79%
    07:00 +13°C° 0 mm 3 mps 758 mmHg 75%
    08:00 +14°C° 0 mm 3 mps 758 mmHg 72%
    09:00 +14°C° 0 mm 3 mps 758 mmHg 69%
    10:00 +16°C° 0 mm 3 mps 758 mmHg 67%
    11:00 +16°C° 0 mm 2 mps 758 mmHg 64%
    12:00 +17°C° 0 mm 2 mps 758 mmHg 62%
    13:00 +17°C° 0 mm 2 mps 758 mmHg 60%
    14:00 +18°C° 0 mm 1 mps 758 mmHg 58%
    15:00 +17°C° 0 mm 2 mps 758 mmHg 62%
    16:00 +17°C° 0 mm 2 mps 758 mmHg 65%
    17:00 +16°C° 0 mm 3 mps 758 mmHg 69%
    18:00 +16°C° 0 mm 3 mps 758 mmHg 70%
    19:00 +14°C° 0 mm 3 mps 758 mmHg 71%
    20:00 +13°C° 0 mm 3 mps 758 mmHg 72%
    21:00 +13°C° 0 mm 3 mps 758 mmHg 71%
    22:00 +13°C° 0 mm 3 mps 758 mmHg 71%
    23:00 +13°C° 0 mm 3 mps 759 mmHg 70%
    Show more